Hourly Data Report for October 23, 2013

All times are specified in Local Standard Time (LST). Add 1 hour to adjust for Daylight Saving Time where and when it is observed.

GJOA HAVEN A
NUNAVUT

68°38'08.000" N
95°51'01.000" W
46.90 m
2302337
71597
YHK

Download Data

Hourly Data (October 2013)
Hourly Data Report for October 23, 2013
Temp Definition
°C
Dew Point Temp Definition
°C
Rel Hum Definition
%
Wind Dir Definition
10's deg

Wind Spd Definition
km/h
Visibility Definition
km
Stn Press Definition
kPa
Hmdx Definition


Wind Chill Definition


Weather Definition


TIME
00:00 Legend Double Dagger -4.0 -5.1 92 18 5 16.1 101.09   -6 LegendNANA
01:00 Legend Double Dagger -4.2 -5.9 88 20 5 16.1 101.08   -6 LegendNANA
02:00 Legend Double Dagger -4.1 -5.7 89 18 9 16.1 101.08   -8 LegendNANA
03:00 Legend Double Dagger -3.9 -5.5 89 16 4 16.1 101.08   -6 LegendNANA
04:00 Legend Double Dagger -4.5 -5.3 94 32 8 16.1 101.07   -8 LegendNANA
05:00 Legend Double Dagger -4.6 -4.9 98 33 8 2.8 101.06   -8 LegendNANA
06:00 Legend Double Dagger -5.0 -5.3 98 33 9 3.6 101.05   -9 LegendNANA
07:00 Legend Double Dagger -5.4 -5.7 98 33 11 1.6 101.07   -10 LegendNANA
08:00 Legend Double Dagger -6.3 -6.8 97 33 15 1.2 101.06   -12 LegendNANA
09:00 Legend Double Dagger -7.8 -8.5 95 33 18 0.6 101.05   -15 LegendNANA
10:00 Legend Double Dagger -7.9 -8.4 96 33 17 0.4 101.03   -15 LegendNANA
11:00 Legend Double Dagger -8.3 -9.0 95 34 13 0.6 101.05   -14 LegendNANA
12:00 Legend Double Dagger -8.4 -9.1 95 33 17 2.4 101.05   -15 LegendNANA
13:00 Legend Double Dagger -8.4 -9.1 95 34 18 6.4 101.04   -15 LegendNANA
14:00 Legend Double Dagger -8.7 -9.4 95 34 18 16.1 101.04   -16 LegendNANA
15:00 Legend Double Dagger -9.1 -9.9 94 2 11 16.1 101.03   -15 LegendNANA
16:00 Legend Double Dagger -8.6 -9.4 94 1 13 16.1 101.01   -15 LegendNANA
17:00 Legend Double Dagger -8.3 -9.0 95 1 13 16.1 100.99   -14 LegendNANA
18:00 Legend Double Dagger -8.0 -8.7 95 2 11 16.1 100.95   -13 LegendNANA
19:00 Legend Double Dagger -8.1 -8.8 95 35 9 14.5 100.89   -13 LegendNANA
20:00 Legend Double Dagger -8.2 -8.9 95 35 8 9.7 100.87   -12 LegendNANA
21:00 Legend Double Dagger -7.8 -8.5 95 28 9 2.4 100.84   -12 LegendNANA
22:00 Legend Double Dagger -9.3 -10.1 94 25 9 16.1 100.80   -14 LegendNANA
23:00 Legend Double Dagger -7.0 -7.5 96 21 17 2.0 100.75   -13 LegendNANA

Notes on Data Quality.

Legend

  • E = Estimated
  • M = Missing
  • NA = Not Available
  • ‡ = Partner data that is not subject to review by the National Climate Archives
Date modified: